,,,PA_Meas_PMT16A,,PR_Meas_QMR101_102,,RH_Meas_QMH101,,SR_Meas_QMS101,,TA_Meas_QMH101,,GenWind,,GenWind,
date,time,status,PA,status,PR,status,RH,status,SR,status,TA,status,DirAvg,status,SpdAvg,
2012-09-06, 00:00:04,VALID,1009.95,VALID,0,VALID,104,VALID,0,VALID,24.7854,VALID,100,VALID,0.666797,
2012-09-06, 00:01:04,VALID,1009.95,VALID,0,VALID,104,VALID,0,VALID,24.7854,VALID,100,VALID,0.687109,
2012-09-06, 00:02:04,VALID,1009.93,VALID,0,VALID,104,VALID,0,VALID,24.7659,VALID,100,VALID,0.651172,
2012-09-06, 00:03:04,VALID,1009.94,VALID,0,VALID,104,VALID,0,VALID,24.7445,VALID,100,VALID,0.140625,
2012-09-06, 00:04:04,VALID,1009.93,VALID,0,VALID,104,VALID,0,VALID,24.7464,VALID,100,VALID,0.525781,
2012-09-06, 00:05:04,VALID,1009.92,VALID,0,VALID,104,VALID,0,VALID,24.7269,VALID,88,VALID,0.796484,
2012-09-06, 00:06:04,VALID,1009.94,VALID,0,VALID,104,VALID,0,VALID,24.7074,VALID,90,VALID,0.746875,
2012-09-06, 00:07:04,VALID,1009.91,VALID,0,VALID,104,VALID,0,VALID,24.7269,VALID,103,VALID,0.630859,
2012-09-06, 00:08:04,VALID,1009.92,VALID,0,VALID,104,VALID,0,VALID,24.7269,VALID,103,VALID,0.837109,
2012-09-06, 00:09:04,VALID,1009.92,VALID,0,VALID,104,VALID,0,VALID,24.7074,VALID,96,VALID,0.83125,
2012-09-06, 00:10:04,VALID,1009.89,VALID,0,VALID,104,VALID,0,VALID,24.686,VALID,99,VALID,0.799219,
2012-09-06, 00:11:04,VALID,1009.86,VALID,0,VALID,104,VALID,0,VALID,24.6879,VALID,101,VALID,0.426953,
2012-09-06, 00:12:04,VALID,1009.87,VALID,0,VALID,104,VALID,0,VALID,24.6879,VALID,101,VALID,0.858984,
2012-09-06, 00:13:04,VALID,1009.92,VALID,0,VALID,104,VALID,0,VALID,24.6471,VALID,99,VALID,0.737109,
2012-09-06, 00:14:04,VALID,1009.92,VALID,0,VALID,104,VALID,0,VALID,24.6471,VALID,99,VALID,0.898047,
2012-09-06, 00:15:04,VALID,1009.94,VALID,0,VALID,104,VALID,0,VALID,24.6276,VALID,98,VALID,0.803516,
2012-09-06, 00:16:04,VALID,1009.93,VALID,0,VALID,104,VALID,0,VALID,24.6489,VALID,98,VALID,0.362891,
2012-09-06, 00:17:04,VALID,1009.93,VALID,0,VALID,104,VALID,0,VALID,24.6294,VALID,98,VALID,0.132031,
2012-09-06, 00:18:04,VALID,1009.91,VALID,0,VALID,104,VALID,0,VALID,24.6294,VALID,101,VALID,0.761719,
2012-09-06, 00:19:04,VALID,1009.88,VALID,0,VALID,104,VALID,0,VALID,24.6294,VALID,101,VALID,0.347656,
2012-09-06, 00:20:04,VALID,1009.85,VALID,0,VALID,104,VALID,0,VALID,24.6294,VALID,102,VALID,0.644531,
2012-09-06, 00:21:04,VALID,1009.84,VALID,0,VALID,104,VALID,0,VALID,24.6099,VALID,112,VALID,0.566797,
2012-09-06, 00:22:04,VALID,1009.8,VALID,0,VALID,104,VALID,0,VALID,24.6099,VALID,112,VALID,0.200781,
2012-09-06, 00:23:04,VALID,1009.8,VALID,0,VALID,104,VALID,0,VALID,24.6099,VALID,112,VALID,0.357031,
2012-09-06, 00:24:04,VALID,1009.77,VALID,0,VALID,104,VALID,0,VALID,24.5905,VALID,89,VALID,0.6375,
2012-09-06, 00:25:04,VALID,1009.74,VALID,0,VALID,104,VALID,0,VALID,24.5905,VALID,89,VALID,0.211328,
2012-09-06, 00:26:04,VALID,1009.74,VALID,0,VALID,104,VALID,0,VALID,24.5905,VALID,89,VALID,0.293359,
2012-09-06, 00:27:04,VALID,1009.72,VALID,0,VALID,104,VALID,0,VALID,24.571,VALID,93,VALID,0.632422,
2012-09-06, 00:28:04,VALID,1009.7,VALID,0,VALID,104,VALID,0,VALID,24.571,VALID,109,VALID,0.283984,
2012-09-06, 00:29:04,VALID,1009.68,VALID,0,VALID,104,VALID,0,VALID,24.5691,VALID,109,VALID,0.117578,
2012-09-06, 00:30:04,VALID,1009.69,VALID,0,VALID,104,VALID,0,VALID,24.5691,VALID,109,VALID,0,
2012-09-06, 00:31:04,VALID,1009.69,VALID,0,VALID,104,VALID,0,VALID,24.571,VALID,109,VALID,0.371094,
2012-09-06, 00:32:04,VALID,1009.71,VALID,0,VALID,104,VALID,0,VALID,24.5496,VALID,109,VALID,0.416406,
2012-09-06, 00:33:04,VALID,1009.73,VALID,0,VALID,104,VALID,0,VALID,24.5301,VALID,109,VALID,0.398438,
2012-09-06, 00:34:04,VALID,1009.74,VALID,0,VALID,104,VALID,0,VALID,24.5301,VALID,109,VALID,0.330859,
2012-09-06, 00:35:04,VALID,1009.77,VALID,0,VALID,104,VALID,0,VALID,24.5515,VALID,109,VALID,0.408594,
2012-09-06, 00:36:04,VALID,1009.79,VALID,0,VALID,104,VALID,0,VALID,24.5301,VALID,109,VALID,0.346875,
2012-09-06, 00:37:04,VALID,1009.81,VALID,0,VALID,104,VALID,0,VALID,24.5515,VALID,109,VALID,0.385547,
2012-09-06, 00:38:04,VALID,1009.8,VALID,0,VALID,104,VALID,0,VALID,24.5301,VALID,109,VALID,0.264844,
2012-09-06, 00:39:04,VALID,1009.78,VALID,0,VALID,104,VALID,0,VALID,24.5515,VALID,109,VALID,0.100781,
2012-09-06, 00:40:04,VALID,1009.8,VALID,0,VALID,104,VALID,0,VALID,24.532,VALID,109,VALID,0.527344,
2012-09-06, 00:41:04,VALID,1009.77,VALID,0,VALID,104,VALID,0,VALID,24.532,VALID,109,VALID,0.427734,
2012-09-06, 00:42:04,VALID,1009.76,VALID,0,VALID,104,VALID,0,VALID,24.532,VALID,109,VALID,0.323438,
2012-09-06, 00:43:04,VALID,1009.76,VALID,0,VALID,104,VALID,0,VALID,24.532,VALID,103,VALID,1.14219,
2012-09-06, 00:44:04,VALID,1009.72,VALID,0,VALID,104,VALID,0,VALID,24.532,VALID,103,VALID,0.930078,
2012-09-06, 00:45:04,VALID,1009.72,VALID,0,VALID,104,VALID,0,VALID,24.532,VALID,97,VALID,0.889844,
2012-09-06, 00:46:04,VALID,1009.69,VALID,0,VALID,104,VALID,0,VALID,24.532,VALID,96,VALID,0.449609,
2012-09-06, 00:47:04,VALID,1009.68,VALID,0,VALID,104,VALID,0,VALID,24.532,VALID,96,VALID,0.528906,
2012-09-06, 00:48:04,VALID,1009.65,VALID,0,VALID,104,VALID,0,VALID,24.5515,VALID,116,VALID,0.740234,
2012-09-06, 00:49:04,VALID,1009.65,VALID,0,VALID,104,VALID,0,VALID,24.5515,VALID,98,VALID,0.65,
2012-09-06, 00:50:04,VALID,1009.66,VALID,0,VALID,104,VALID,0,VALID,24.532,VALID,87,VALID,0.357031,
2012-09-06, 00:51:04,VALID,1009.65,VALID,0,VALID,104,VALID,0,VALID,24.532,VALID,81,VALID,0.445313,
2012-09-06, 00:52:04,VALID,1009.69,VALID,0,VALID,104,VALID,0,VALID,24.532,VALID,63,VALID,1.02852,
2012-09-06, 00:53:04,VALID,1009.67,VALID,0,VALID,104,VALID,0,VALID,24.5106,VALID,50,VALID,1.04336,
2012-09-06, 00:54:04,VALID,1009.65,VALID,0,VALID,104,VALID,0,VALID,24.5125,VALID,60,VALID,0.898047,
2012-09-06, 00:55:04,VALID,1009.61,VALID,0,VALID,104,VALID,0,VALID,24.5125,VALID,80,VALID,1.13516,
2012-09-06, 00:56:04,VALID,1009.57,VALID,0,VALID,104,VALID,0,VALID,24.493,VALID,67,VALID,0.552344,
2012-09-06, 00:57:04,VALID,1009.55,VALID,0,VALID,104,VALID,0,VALID,24.4717,VALID,67,VALID,0.373437,
2012-09-06, 00:58:04,VALID,1009.51,VALID,0,VALID,104,VALID,0,VALID,24.493,VALID,67,VALID,0.560547,
2012-09-06, 00:59:04,VALID,1009.47,VALID,0,VALID,104,VALID,0,VALID,24.4717,VALID,62,VALID,0.666016,
2012-09-06, 01:00:04,VALID,1009.44,VALID,0,VALID,104,VALID,0,VALID,24.4735,VALID,76,VALID,0.462109,
2012-09-06, 01:01:04,VALID,1009.42,VALID,0,VALID,104,VALID,0,VALID,24.493,VALID,75,VALID,0.782031,
2012-09-06, 01:02:04,VALID,1009.39,VALID,0,VALID,104,VALID,0,VALID,24.4735,VALID,75,VALID,0.592969,
2012-09-06, 01:03:04,VALID,1009.37,VALID,0,VALID,104,VALID,0,VALID,24.4717,VALID,98,VALID,0.691016,
2012-09-06, 01:04:04,VALID,1009.35,VALID,0,VALID,104,VALID,0,VALID,24.4735,VALID,129,VALID,0.457812,
2012-09-06, 01:05:04,VALID,1009.3,VALID,0,VALID,104,VALID,0,VALID,24.4522,VALID,129,VALID,0.702734,
2012-09-06, 01:06:04,VALID,1009.29,VALID,0,VALID,104,VALID,0,VALID,24.4735,VALID,107,VALID,0.478125,
2012-09-06, 01:07:04,VALID,1009.29,VALID,0,VALID,104,VALID,0,VALID,24.4735,VALID,102,VALID,1.27109,
2012-09-06, 01:08:04,VALID,1009.28,VALID,0,VALID,104,VALID,0.112112,VALID,24.4522,VALID,101,VALID,1.025,
2012-09-06, 01:09:04,VALID,1009.27,VALID,0,VALID,104,VALID,0,VALID,24.4327,VALID,94,VALID,0.823047,
2012-09-06, 01:10:04,VALID,1009.24,VALID,0,VALID,104,VALID,0,VALID,24.454,VALID,101,VALID,0.45,
2012-09-06, 01:11:04,VALID,1009.23,VALID,0,VALID,104,VALID,0,VALID,24.4327,VALID,101,VALID,0.25625,
2012-09-06, 01:12:04,VALID,1009.2,VALID,0,VALID,104,VALID,0,VALID,24.4345,VALID,124,VALID,0.889453,
2012-09-06, 01:13:04,VALID,1009.19,VALID,0,VALID,104,VALID,0,VALID,24.4345,VALID,131,VALID,0.829297,
2012-09-06, 01:14:04,VALID,1009.17,VALID,0,VALID,104,VALID,0,VALID,24.415,VALID,126,VALID,0.820313,
2012-09-06, 01:15:04,VALID,1009.15,VALID,0,VALID,104,VALID,0,VALID,24.3742,VALID,99,VALID,0.982031,
2012-09-06, 01:16:04,VALID,1009.13,VALID,0,VALID,104,VALID,0,VALID,24.3937,VALID,98,VALID,0.409766,
2012-09-06, 01:17:04,VALID,1009.09,VALID,0,VALID,104,VALID,0,VALID,24.3742,VALID,98,VALID,0.325,
2012-09-06, 01:18:04,VALID,1009.07,VALID,0,VALID,104,VALID,0,VALID,24.3956,VALID,98,VALID,0.271875,
2012-09-06, 01:19:04,VALID,1009.06,VALID,0,VALID,104,VALID,0,VALID,24.3956,VALID,98,VALID,0.196094,
2012-09-06, 01:20:04,VALID,1009.02,VALID,0,VALID,104,VALID,0,VALID,24.3956,VALID,127,VALID,0.919531,
2012-09-06, 01:21:04,VALID,1009,VALID,0,VALID,104,VALID,0,VALID,24.3742,VALID,124,VALID,0.642187,
2012-09-06, 01:22:04,VALID,1009,VALID,0,VALID,104,VALID,0,VALID,24.3547,VALID,140,VALID,0.28125,
2012-09-06, 01:23:04,VALID,1009,VALID,0,VALID,104,VALID,0,VALID,24.3547,VALID,141,VALID,0.812891,
2012-09-06, 01:24:05,VALID,1008.99,VALID,0,VALID,104,VALID,0,VALID,24.3761,VALID,123,VALID,0.830859,
2012-09-06, 01:25:05,VALID,1008.97,VALID,0,VALID,104,VALID,0,VALID,24.3761,VALID,123,VALID,0.584375,
2012-09-06, 01:26:05,VALID,1008.98,VALID,0,VALID,104,VALID,0,VALID,24.3547,VALID,123,VALID,1.025,
2012-09-06, 01:27:05,VALID,1008.96,VALID,0,VALID,104,VALID,0,VALID,24.3761,VALID,133,VALID,0.756641,
2012-09-06, 01:28:05,VALID,1008.96,VALID,0,VALID,104,VALID,0.112112,VALID,24.3352,VALID,139,VALID,0.8375,
2012-09-06, 01:29:05,VALID,1008.96,VALID,0,VALID,104,VALID,0,VALID,24.3566,VALID,132,VALID,1.41055,
2012-09-06, 01:30:05,VALID,1008.97,VALID,0,VALID,104,VALID,0,VALID,24.3547,VALID,127,VALID,0.882813,
2012-09-06, 01:31:05,VALID,1008.94,VALID,0,VALID,104,VALID,0,VALID,24.3761,VALID,121,VALID,0.584375,
2012-09-06, 01:32:05,VALID,1008.95,VALID,0,VALID,104,VALID,0,VALID,24.3761,VALID,121,VALID,0.894531,
2012-09-06, 01:33:05,VALID,1008.93,VALID,0,VALID,104,VALID,0,VALID,24.3761,VALID,121,VALID,0.552734,
2012-09-06, 01:34:05,VALID,1008.9,VALID,0,VALID,104,VALID,0,VALID,24.3761,VALID,121,VALID,0.394922,
2012-09-06, 01:35:05,VALID,1008.88,VALID,0,VALID,104,VALID,0,VALID,24.3761,VALID,121,VALID,0.469922,
2012-09-06, 01:36:05,VALID,1008.85,VALID,0,VALID,104,VALID,0,VALID,24.3956,VALID,121,VALID,0.557422,
2012-09-06, 01:37:05,VALID,1008.86,VALID,0,VALID,104,VALID,0,VALID,24.3761,VALID,121,VALID,0.438672,
2012-09-06, 01:38:05,VALID,1008.82,VALID,0,VALID,104,VALID,0,VALID,24.3761,VALID,119,VALID,0.664453,
2012-09-06, 01:39:05,VALID,1008.82,VALID,0,VALID,104,VALID,0,VALID,24.3956,VALID,119,VALID,0.483203,
2012-09-06, 01:40:05,VALID,1008.78,VALID,0,VALID,104,VALID,0,VALID,24.3761,VALID,119,VALID,0.0914062,
2012-09-06, 01:41:05,VALID,1008.78,VALID,0,VALID,104,VALID,0,VALID,24.3742,VALID,119,VALID,0.175391,
2012-09-06, 01:42:05,VALID,1008.78,VALID,0,VALID,104,VALID,0,VALID,24.3742,VALID,119,VALID,0,
2012-09-06, 01:43:05,VALID,1008.75,VALID,0,VALID,104,VALID,0,VALID,24.3956,VALID,88,VALID,0.783984,
2012-09-06, 01:44:05,VALID,1008.75,VALID,0,VALID,104,VALID,0,VALID,24.3956,VALID,88,VALID,0.614844,
2012-09-06, 01:45:05,VALID,1008.76,VALID,0,VALID,104,VALID,0,VALID,24.3937,VALID,90,VALID,0.691797,
2012-09-06, 01:46:05,VALID,1008.75,VALID,0,VALID,104,VALID,0,VALID,24.415,VALID,105,VALID,0.551562,
2012-09-06, 01:47:05,VALID,1008.75,VALID,0,VALID,104,VALID,0,VALID,24.415,VALID,105,VALID,0.385156,
2012-09-06, 01:48:05,VALID,1008.81,VALID,0,VALID,104,VALID,0,VALID,24.415,VALID,105,VALID,0.0980469,
2012-09-06, 01:49:05,VALID,1008.83,VALID,0,VALID,104,VALID,0,VALID,24.415,VALID,103,VALID,0.440234,
2012-09-06, 01:50:05,VALID,1008.8,VALID,0,VALID,104,VALID,0,VALID,24.4345,VALID,102,VALID,0.477344,
2012-09-06, 01:51:05,VALID,1008.83,VALID,0,VALID,104,VALID,0,VALID,24.4345,VALID,55,VALID,0.505859,
2012-09-06, 01:52:05,VALID,1008.83,VALID,0,VALID,104,VALID,0,VALID,24.4345,VALID,55,VALID,0.489844,
2012-09-06, 01:53:05,VALID,1008.85,VALID,0,VALID,104,VALID,0,VALID,24.4345,VALID,55,VALID,0.499219,
2012-09-06, 01:54:05,VALID,1008.86,VALID,0,VALID,104,VALID,0,VALID,24.4345,VALID,40,VALID,0.458594,
2012-09-06, 01:55:05,VALID,1008.9,VALID,0,VALID,104,VALID,0,VALID,24.4345,VALID,40,VALID,0.555469,
2012-09-06, 01:56:05,VALID,1008.91,VALID,0,VALID,104,VALID,0,VALID,24.4345,VALID,40,VALID,0.0761719,
2012-09-06, 01:57:05,VALID,1008.95,VALID,0,VALID,104,VALID,0,VALID,24.415,VALID,40,VALID,0.502734,
2012-09-06, 01:58:05,VALID,1008.97,VALID,0,VALID,104,VALID,0,VALID,24.415,VALID,40,VALID,0.147266,
2012-09-06, 01:59:05,VALID,1008.98,VALID,0,VALID,104,VALID,0,VALID,24.415,VALID,40,VALID,0.11875,
2012-09-06, 02:00:05,VALID,1008.98,VALID,0,VALID,104,VALID,0,VALID,24.3742,VALID,40,VALID,0.320313,
2012-09-06, 02:01:05,VALID,1008.97,VALID,0,VALID,104,VALID,0.112112,VALID,24.3937,VALID,40,VALID,0.219922,
2012-09-06, 02:02:05,VALID,1009.01,VALID,0,VALID,104,VALID,0.112112,VALID,24.3937,VALID,40,VALID,0,
2012-09-06, 02:03:05,VALID,1008.96,VALID,0,VALID,104,VALID,0.112112,VALID,24.3742,VALID,40,VALID,0.0464844,
2012-09-06, 02:04:05,VALID,1009,VALID,0,VALID,104,VALID,0.112112,VALID,24.3724,VALID,40,VALID,0.215234,
2012-09-06, 02:05:05,VALID,1008.98,VALID,0,VALID,104,VALID,0.112112,VALID,24.3937,VALID,40,VALID,0.0851562,
2012-09-06, 02:06:05,VALID,1009.03,VALID,0,VALID,104,VALID,0.112112,VALID,24.3742,VALID,40,VALID,0,
2012-09-06, 02:07:05,VALID,1009.02,VALID,0,VALID,104,VALID,0.112112,VALID,24.3937,VALID,40,VALID,0,
2012-09-06, 02:08:05,VALID,1008.99,VALID,0,VALID,104,VALID,0,VALID,24.3937,VALID,40,VALID,0,
2012-09-06, 02:09:05,VALID,1008.97,VALID,0,VALID,104,VALID,0.112112,VALID,24.3956,VALID,40,VALID,0,
2012-09-06, 02:10:05,VALID,1008.93,VALID,0,VALID,104,VALID,0.112112,VALID,24.3937,VALID,40,VALID,0,
2012-09-06, 02:11:05,VALID,1008.9,VALID,0,VALID,104,VALID,0.112112,VALID,24.3742,VALID,40,VALID,0,
2012-09-06, 02:12:05,VALID,1008.91,VALID,0,VALID,104,VALID,0.112112,VALID,24.3724,VALID,40,VALID,0,
2012-09-06, 02:13:05,VALID,1008.88,VALID,0,VALID,104,VALID,0.112112,VALID,24.3742,VALID,40,VALID,0,
2012-09-06, 02:14:05,VALID,1008.87,VALID,0,VALID,104,VALID,0.112112,VALID,24.3742,VALID,40,VALID,0,
2012-09-06, 02:15:05,VALID,1008.87,VALID,0,VALID,104,VALID,0.112112,VALID,24.3547,VALID,40,VALID,0,
2012-09-06, 02:16:05,VALID,1008.88,VALID,0,VALID,104,VALID,0,VALID,24.3566,VALID,40,VALID,0,
2012-09-06, 02:17:05,VALID,1008.89,VALID,0,VALID,104,VALID,0,VALID,24.3566,VALID,40,VALID,0,
2012-09-06, 02:18:05,VALID,1008.87,VALID,0,VALID,104,VALID,0,VALID,24.3566,VALID,40,VALID,0,
2012-09-06, 02:19:05,VALID,1008.88,VALID,0,VALID,104,VALID,0,VALID,24.3566,VALID,40,VALID,0,
2012-09-06, 02:20:05,VALID,1008.88,VALID,0,VALID,104,VALID,0,VALID,24.3371,VALID,40,VALID,0,
2012-09-06, 02:21:05,VALID,1008.88,VALID,0,VALID,104,VALID,0,VALID,24.3566,VALID,40,VALID,0,
2012-09-06, 02:22:05,VALID,1008.9,VALID,0,VALID,104,VALID,0,VALID,24.3158,VALID,40,VALID,0,
2012-09-06, 02:23:05,VALID,1008.94,VALID,0,VALID,104,VALID,0,VALID,24.3158,VALID,40,VALID,0,
2012-09-06, 02:24:05,VALID,1008.94,VALID,0,VALID,104,VALID,0,VALID,24.3371,VALID,40,VALID,0,
2012-09-06, 02:25:05,VALID,1008.95,VALID,0,VALID,104,VALID,0,VALID,24.3566,VALID,40,VALID,0,
2012-09-06, 02:26:05,VALID,1009,VALID,0,VALID,104,VALID,0,VALID,24.3352,VALID,40,VALID,0,
2012-09-06, 02:27:05,VALID,1009.01,VALID,0,VALID,104,VALID,0,VALID,24.3566,VALID,40,VALID,0,
2012-09-06, 02:28:05,VALID,1009.01,VALID,0,VALID,104,VALID,0,VALID,24.3352,VALID,40,VALID,0,
2012-09-06, 02:29:05,VALID,1009.06,VALID,0,VALID,104,VALID,0,VALID,24.3371,VALID,40,VALID,0,
2012-09-06, 02:30:05,VALID,1009.04,VALID,0,VALID,104,VALID,0,VALID,24.3371,VALID,40,VALID,0,
2012-09-06, 02:31:05,VALID,1009.05,VALID,0,VALID,104,VALID,0.112112,VALID,24.3352,VALID,40,VALID,0,
2012-09-06, 02:32:05,VALID,1009.09,VALID,0,VALID,104,VALID,0.112112,VALID,24.3371,VALID,40,VALID,0,
2012-09-06, 02:33:05,VALID,1009.07,VALID,0,VALID,104,VALID,0,VALID,24.3371,VALID,40,VALID,0,
2012-09-06, 02:34:05,VALID,1009.07,VALID,0,VALID,104,VALID,0,VALID,24.3371,VALID,40,VALID,0,
2012-09-06, 02:35:05,VALID,1009.1,VALID,0,VALID,104,VALID,0,VALID,24.3352,VALID,40,VALID,0,
2012-09-06, 02:36:05,VALID,1009.11,VALID,0,VALID,104,VALID,0,VALID,24.3371,VALID,40,VALID,0,
2012-09-06, 02:37:05,VALID,1009.1,VALID,0,VALID,104,VALID,0,VALID,24.3566,VALID,40,VALID,0,
2012-09-06, 02:38:05,VALID,1009.11,VALID,0,VALID,104,VALID,0,VALID,24.3371,VALID,40,VALID,0,
2012-09-06, 02:39:05,VALID,1009.13,VALID,0,VALID,104,VALID,0,VALID,24.3761,VALID,40,VALID,0,
2012-09-06, 02:40:05,VALID,1009.1,VALID,0,VALID,104,VALID,0,VALID,24.3956,VALID,40,VALID,0,
2012-09-06, 02:41:05,VALID,1009.07,VALID,0,VALID,104,VALID,0,VALID,24.3742,VALID,40,VALID,0,
2012-09-06, 02:42:05,VALID,1009.03,VALID,0,VALID,104,VALID,0,VALID,24.3742,VALID,40,VALID,0,
2012-09-06, 02:43:05,VALID,1009.03,VALID,0,VALID,104,VALID,0,VALID,24.3956,VALID,40,VALID,0,
2012-09-06, 02:44:05,VALID,1009.04,VALID,0,VALID,104,VALID,0,VALID,24.3761,VALID,40,VALID,0,
2012-09-06, 02:45:05,VALID,1009.05,VALID,0,VALID,104,VALID,0,VALID,24.3761,VALID,40,VALID,0,
2012-09-06, 02:46:05,VALID,1009.04,VALID,0,VALID,104,VALID,0,VALID,24.3761,VALID,40,VALID,0,
2012-09-06, 02:47:05,VALID,1009.06,VALID,0,VALID,104,VALID,0,VALID,24.3566,VALID,40,VALID,0,
2012-09-06, 02:48:05,VALID,1009.06,VALID,0,VALID,104,VALID,0,VALID,24.3761,VALID,40,VALID,0,
2012-09-06, 02:49:05,VALID,1009.07,VALID,0,VALID,104,VALID,0,VALID,24.3761,VALID,40,VALID,0,
2012-09-06, 02:50:05,VALID,1009.07,VALID,0,VALID,104,VALID,0,VALID,24.3761,VALID,40,VALID,0,
2012-09-06, 02:51:05,VALID,1009.08,VALID,0,VALID,104,VALID,0,VALID,24.3547,VALID,40,VALID,0,
2012-09-06, 02:52:05,VALID,1009.07,VALID,0,VALID,104,VALID,0,VALID,24.3974,VALID,40,VALID,0,
2012-09-06, 02:53:05,VALID,1009.1,VALID,0,VALID,104,VALID,0,VALID,24.3761,VALID,40,VALID,0,
2012-09-06, 02:54:05,VALID,1009.11,VALID,0,VALID,104,VALID,0,VALID,24.3956,VALID,40,VALID,0,
2012-09-06, 02:55:05,VALID,1009.08,VALID,0,VALID,104,VALID,0,VALID,24.3761,VALID,32,VALID,0.591406,
2012-09-06, 02:56:05,VALID,1009.07,VALID,0,VALID,104,VALID,0,VALID,24.3566,VALID,5,VALID,0.551562,
2012-09-06, 02:57:05,VALID,1009.05,VALID,0,VALID,104,VALID,0,VALID,24.3566,VALID,5,VALID,0.195313,
2012-09-06, 02:58:05,VALID,1009.03,VALID,0,VALID,104,VALID,0,VALID,24.3974,VALID,5,VALID,0,
2012-09-06, 02:59:05,VALID,1009.03,VALID,0,VALID,104,VALID,0,VALID,24.3974,VALID,5,VALID,0,
2012-09-06, 03:00:05,VALID,1009.01,VALID,0,VALID,104,VALID,0,VALID,24.3956,VALID,5,VALID,0,
2012-09-06, 03:01:05,VALID,1008.98,VALID,0,VALID,104,VALID,0,VALID,24.415,VALID,5,VALID,0,
2012-09-06, 03:02:05,VALID,1008.93,VALID,0,VALID,104,VALID,0,VALID,24.415,VALID,5,VALID,0.253906,
2012-09-06, 03:03:05,VALID,1008.94,VALID,0,VALID,104,VALID,0,VALID,24.3956,VALID,5,VALID,0.0429688,
2012-09-06, 03:04:05,VALID,1008.89,VALID,0,VALID,104,VALID,0,VALID,24.3761,VALID,5,VALID,0,
2012-09-06, 03:05:05,VALID,1008.87,VALID,0,VALID,104,VALID,0,VALID,24.3956,VALID,5,VALID,0.00078125,
2012-09-06, 03:06:05,VALID,1008.85,VALID,0,VALID,104,VALID,0,VALID,24.3956,VALID,5,VALID,0.183984,
2012-09-06, 03:07:05,VALID,1008.83,VALID,0,VALID,104,VALID,0,VALID,24.3761,VALID,5,VALID,0.046875,
2012-09-06, 03:08:05,VALID,1008.83,VALID,0,VALID,104,VALID,0,VALID,24.3761,VALID,5,VALID,0,
2012-09-06, 03:09:05,VALID,1008.82,VALID,0,VALID,104,VALID,0,VALID,24.3956,VALID,5,VALID,0.235938,
2012-09-06, 03:10:05,VALID,1008.84,VALID,0,VALID,104,VALID,0,VALID,24.3761,VALID,5,VALID,0.0078125,
2012-09-06, 03:11:05,VALID,1008.84,VALID,0,VALID,104,VALID,0,VALID,24.3761,VALID,5,VALID,0.0308594,
2012-09-06, 03:12:05,VALID,1008.83,VALID,0,VALID,104,VALID,0,VALID,24.3761,VALID,5,VALID,0.278516,
2012-09-06, 03:13:05,VALID,1008.84,VALID,0,VALID,104,VALID,0,VALID,24.3956,VALID,5,VALID,0.389453,
2012-09-06, 03:14:05,VALID,1008.83,VALID,0,VALID,104,VALID,0,VALID,24.3761,VALID,5,VALID,0.526563,
2012-09-06, 03:15:05,VALID,1008.84,VALID,0,VALID,104,VALID,0,VALID,24.3761,VALID,5,VALID,0.400781,
2012-09-06, 03:16:05,VALID,1008.86,VALID,0,VALID,104,VALID,0,VALID,24.3742,VALID,5,VALID,0.160938,
2012-09-06, 03:17:05,VALID,1008.86,VALID,0,VALID,104,VALID,0,VALID,24.3956,VALID,5,VALID,0.377344,
2012-09-06, 03:18:05,VALID,1008.91,VALID,0,VALID,104,VALID,0.112112,VALID,24.415,VALID,5,VALID,0,
2012-09-06, 03:19:05,VALID,1008.92,VALID,0,VALID,104,VALID,0,VALID,24.4345,VALID,5,VALID,0.075,
2012-09-06, 03:20:05,VALID,1008.94,VALID,0,VALID,104,VALID,0,VALID,24.415,VALID,5,VALID,0,
2012-09-06, 03:21:05,VALID,1008.95,VALID,0,VALID,104,VALID,0,VALID,24.415,VALID,5,VALID,0,
2012-09-06, 03:22:05,VALID,1008.98,VALID,0,VALID,104,VALID,0,VALID,24.415,VALID,5,VALID,0,
2012-09-06, 03:23:05,VALID,1009,VALID,0,VALID,104,VALID,0,VALID,24.4345,VALID,5,VALID,0,
2012-09-06, 03:24:05,VALID,1009,VALID,0,VALID,104,VALID,0,VALID,24.415,VALID,5,VALID,0,
2012-09-06, 03:25:05,VALID,1008.98,VALID,0,VALID,104,VALID,0.112112,VALID,24.4345,VALID,5,VALID,0,
2012-09-06, 03:26:05,VALID,1008.99,VALID,0,VALID,104,VALID,0,VALID,24.415,VALID,5,VALID,0.582422,
2012-09-06, 03:27:05,VALID,1008.99,VALID,0,VALID,104,VALID,0,VALID,24.415,VALID,5,VALID,0.596875,
2012-09-06, 03:28:05,VALID,1008.99,VALID,0,VALID,104,VALID,0,VALID,24.4345,VALID,6,VALID,0.540625,
2012-09-06, 03:29:05,VALID,1008.98,VALID,0,VALID,104,VALID,0,VALID,24.4345,VALID,6,VALID,0.516016,
2012-09-06, 03:30:05,VALID,1008.98,VALID,0,VALID,104,VALID,0,VALID,24.4345,VALID,6,VALID,0.436328,
2012-09-06, 03:31:05,VALID,1008.98,VALID,0,VALID,104,VALID,0,VALID,24.415,VALID,6,VALID,0.678125,
2012-09-06, 03:32:05,VALID,1008.99,VALID,0,VALID,104,VALID,0,VALID,24.4345,VALID,11,VALID,0.679297,
2012-09-06, 03:33:05,VALID,1009.03,VALID,0,VALID,104,VALID,0,VALID,24.415,VALID,11,VALID,0.277344,
2012-09-06, 03:34:05,VALID,1009.04,VALID,0,VALID,104,VALID,0,VALID,24.415,VALID,11,VALID,0,
2012-09-06, 03:35:05,VALID,1009.02,VALID,0,VALID,104,VALID,0,VALID,24.415,VALID,11,VALID,0.155078,
2012-09-06, 03:36:05,VALID,1009.05,VALID,0,VALID,104,VALID,0,VALID,24.3937,VALID,11,VALID,0,
2012-09-06, 03:37:05,VALID,1009.06,VALID,0,VALID,104,VALID,0,VALID,24.415,VALID,11,VALID,0.592188,
2012-09-06, 03:38:05,VALID,1009.05,VALID,0,VALID,104,VALID,0,VALID,24.415,VALID,11,VALID,0.300391,
2012-09-06, 03:39:05,VALID,1009.09,VALID,0,VALID,104,VALID,0,VALID,24.3937,VALID,11,VALID,0.516406,
2012-09-06, 03:40:05,VALID,1009.09,VALID,0,VALID,104,VALID,0,VALID,24.415,VALID,11,VALID,0.248047,
2012-09-06, 03:41:05,VALID,1009.08,VALID,0,VALID,104,VALID,0,VALID,24.415,VALID,11,VALID,0.203125,
2012-09-06, 03:42:05,VALID,1009.09,VALID,0,VALID,104,VALID,0,VALID,24.415,VALID,11,VALID,0.126172,
2012-09-06, 03:43:05,VALID,1009.13,VALID,0,VALID,104,VALID,0,VALID,24.415,VALID,11,VALID,0.0332031,
2012-09-06, 03:44:05,VALID,1009.12,VALID,0,VALID,104,VALID,0,VALID,24.4345,VALID,11,VALID,0,
2012-09-06, 03:45:05,VALID,1009.13,VALID,0,VALID,104,VALID,0,VALID,24.415,VALID,11,VALID,0,
2012-09-06, 03:46:05,VALID,1009.16,VALID,0,VALID,104,VALID,0,VALID,24.4345,VALID,11,VALID,0,
2012-09-06, 03:47:05,VALID,1009.17,VALID,0,VALID,104,VALID,0,VALID,24.4327,VALID,11,VALID,0,
2012-09-06, 03:48:05,VALID,1009.19,VALID,0,VALID,104,VALID,0,VALID,24.4735,VALID,11,VALID,0,
2012-09-06, 03:49:05,VALID,1009.18,VALID,0,VALID,104,VALID,0,VALID,24.4735,VALID,11,VALID,0,
2012-09-06, 03:50:05,VALID,1009.22,VALID,0,VALID,104,VALID,0.112112,VALID,24.4522,VALID,11,VALID,0.122266,
2012-09-06, 03:51:05,VALID,1009.22,VALID,0,VALID,104,VALID,0,VALID,24.454,VALID,11,VALID,0.196484,
2012-09-06, 03:52:05,VALID,1009.24,VALID,0,VALID,104,VALID,0,VALID,24.4735,VALID,11,VALID,0.0558594,
2012-09-06, 03:53:05,VALID,1009.28,VALID,0,VALID,104,VALID,0,VALID,24.454,VALID,11,VALID,0,
2012-09-06, 03:54:05,VALID,1009.28,VALID,0,VALID,104,VALID,0,VALID,24.454,VALID,11,VALID,0.130469,
2012-09-06, 03:55:05,VALID,1009.28,VALID,0,VALID,104,VALID,0,VALID,24.4522,VALID,11,VALID,0.309766,
2012-09-06, 03:56:05,VALID,1009.27,VALID,0,VALID,104,VALID,0,VALID,24.454,VALID,11,VALID,0.472656,
2012-09-06, 03:57:05,VALID,1009.29,VALID,0,VALID,104,VALID,0,VALID,24.4327,VALID,11,VALID,0.314453,
2012-09-06, 03:58:05,VALID,1009.29,VALID,0,VALID,104,VALID,0,VALID,24.4327,VALID,11,VALID,0.341406,
2012-09-06, 03:59:05,VALID,1009.31,VALID,0,VALID,104,VALID,0,VALID,24.4735,VALID,11,VALID,0.181641,